Location: Corcelles
(46.1547°N, 4.7234°E)
Time: 10:53:12
(UTC+00:00)

Cosmos 1763 Rocket - Pass Details

Date: 14 July 2020
Orbit: 732 x 781 km, 74.0° (Epoch: 05 August)

Event Time Altitude Azimuth Distance (km) Brightness Sun altitude
Rises 02:22:17 0° 340° (NNW) 3,240 7.2 -13.7°
Reaches altitude 10° 02:24:41 10° 343° (NNW) 2,317 6.5 -13.4°
Maximum altitude 02:29:55 66° 66° (ENE) 845 3.9 -12.8°
Drops below altitude 10° 02:35:11 10° 149° (SSE) 2,324 5.8 -12.3°
Sets 02:37:35 0° 152° (SSE) 3,250 6.5 -12.0°
